SCP
0 0 0 0 -0 0 0 -0 0 0 0 0 0 0 0 0 0 0 -0 0 -0 -0 -0 -0 -0 -0 -0 -0 0 0 0 -0 0 -0 -0 -0 -0 0 0 0 -0 0 0 -0
0 0 0 0 0 0 0 -0 -0 0 0 0 0 0 0 0 0 0 0 0 -0 0 -0 -0 -0 -0 -0 -0 -0 0 -0 0 0 0 0 -0 -0 0 0 0 0 0 0 0
0 0 0 0 0 0 -0 0 -0 0 0 -0 0 0 0 -0 0 0 0 0 0 0 0 -0 -0 -0 -0 -0 -0 -0 0 0 0 -0 0 0 0 0 0 0 0 0 0 0
0 0 -0 0 0 0 -0 0 0 -0 0 -0 0 0 0 0 -0 0 0 0 0 0 0 -0 -0 -0 -0 -0 -0 -0 0 0 -0 0 0 -0 -0 0 -0 -0 -0 0 -0 0
0 0 0 0 0 0 0 -0 0 -0 -0 0 -0 0 -0 -0 0 -0 0 0 0 0 0 0 -0 -0 -0 -0 -0 -0 -0 0 0 -0 0 -0 0 -0 -0 -0 0 0 -0 -0
0 -0 0 0 0 0 0 -0 0 0 -0 -0 0 0 -0 -0 -0 -0 0 0 0 -0 0 -0 0 0 -0 -0 -0 -0 -0 0 0 0 0 0 0 0 -0 0 0 0 0 -0
0 0 0 0 0 0 0 0 0 0 0 -0 0 -0 0 -0 -0 -0 -0 0 -0 -0 -0 0 -0 0 0 -0 -0 -0 -0 -0 -0 0 0 0 0 -0 -0 -0 -0 0 -0 0
0 0 -0 0 0 0 0 0 0 0 0 -0 -0 -0 -0 -1 0 -0 0 0 -0 -0 -0 0 0 0 0 0 -0 -0 -0 -0 -0 0 0 0 0 -0 -0 -0 0 0 0 -0
0 -0 -0 -0 0 0 0 0 0 0 0 0 0 0 -0 -0 -0 0 -0 0 0 0 0 0 0 0 0 0 0 -0 -0 -0 0 -0 0 0 -0 0 0 0 -0 0 0 0
0 0 0 0 0 0 0 0 0 0 0 0 0 0 0 -0 -0 -0 0 -0 0 -0 -0 0 0 0 0 0 0 0 0 0 0 0 0 0 0 -0 0 0 0 0 0 0
0 0 0 0 0 0 0 0 0 0 0 0 -0 0 0 0 0 -0 -0 -0 -0 0 0 1 0 0 0 0 0 0 0 0 0 0 0 0 0 0 0 0 0 0 0 0
0 0 0 0 0 0 0 0 0 0 0 0 0 0 -0 0 0 0 -0 -0 -0 -0 0 0 1 1 1 1 0 2 1 0 0 0 0 0 0 0 0 0 0 0 0 0
0 0 0 0 0 0 0 0 0 0 0 0 0 -0 -0 -0 -0 -0 0 -0 -0 0 0 0 0 1 0 0 0 1 0 0 0 0 1 0 0 0 0 0 0 0 0 0
0 0 0 0 0 0 0 0 0 0 0 0 0 0 -0 -0 0 0 0 0 0 0 0 0 0 -0 0 1 1 0 0 0 0 1 1 1 0 1 0 0 1 1 0 0
0 0 0 0 0 0 0 0 0 0 0 0 0 -0 1 0 0 0 1 1 0 0 0 -0 0 0 0 0 -0 1 1 1 0 0 1 0 1 1 1 1 1 1 1 0
0 0 0 0 0 0 0 -0 0 0 0 0 0 0 0 0 0 0 2 1 0 0 0 1 1 0 0 0 0 0 0 0 1 0 1 1 0 1 0 1 1 1 1 1
0 0 0 0 0 0 0 0 0 0 0 0 0 0 0 0 0 0 0 0 1 2 2 1 1 1 0 0 -0 0 0 0 0 0 0 0 0 0 0 1 1 1 1 1
0 0 0 0 0 0 0 0 0 0 0 0 1 0 0 -0 0 1 0 0 0 0 0 0 0 0 0 0 0 0 0 0 0 0 0 0 0 0 0 0 1 1 1 1
0 0 0 0 0 0 0 0 0 0 0 0 0 0 0 0 0 0 0 -0 0 0 0 0 0 0 0 0 0 0 0 0 0 0 0 0 0 0 0 0 0 0 0 0
0 0 0 0 0 0 0 0 0 0 0 0 0 -0 1 1 1 0 0 0 0 0 0 0 0 0 0 0 0 0 0 0 0 0 0 0 0 0 0 0 0 0 0 0
0 0 0 0 0 -0 0 0 0 0 0 0 0 0 -0 -0 0 0 0 0 0 0 0 0 0 0 0 0 0 0 0 0 0 0 0 0 0 0 0 0 0 0 0 0
0 0 0 0 0 0 0 0 0 0 0 0 0 -0 0 0 0 0 0 0 0 0 0 0 0 0 0 0 0 0 0 0 0 0 0 0 0 0 0 0 0 0 0 0
0 0 0 0 0 0 0 0 0 0 0 0 0 0 0 0 0 0 0 0 0 0 0 0 0 0 0 0 0 0 0 0 0 0 0 0 0 0 0 0 0 0 0 0
-0 0 0 -0 0 0 0 0 0 0 0 0 0 0 0 0 0 0 0 0 0 0 0 0 0 0 0 0 0 0 0 0 0 0 0 0 0 0 0 0 0 0 0 0
0 0 0 0 0 0 0 0 0 0 0 0 0 0 0 0 0 0 0 0 0 0 0 0 0 0 0 0 0 0 0 0 0 0 0 0 0 0 0 0 0 0 0 0
0 0 0 0 0 0 0 0 0 0 0 0 0 0 0 0 0 0 0 0 0 0 0 0 0 0 0 0 0 0 0 0 0 0 0 0 0 0 0 0 0 0 0 0
Wind_Speed_500mb
37 22 30 37 40 20 32 28 18 30 24 13 10 6 23 26 29 48 47 47 44 46 43 40 41 38 37 37 40 28 28 34 33 45 40 43 26 32 23 23 16 11 16 13
20 32 35 34 36 30 42 48 34 25 36 7 17 20 30 29 21 25 47 51 45 51 51 45 48 44 46 36 34 35 39 35 30 28 30 38 38 34 23 18 14 17 7 14
35 28 31 35 35 33 41 21 37 25 31 15 13 16 28 32 19 29 28 22 54 62 53 51 44 44 41 35 34 37 33 32 27 27 26 37 32 27 25 22 14 18 9 13
32 33 34 35 34 33 24 30 28 50 28 12 28 7 18 29 30 32 40 35 28 55 49 58 45 40 47 41 29 29 22 30 27 28 18 33 33 27 27 23 21 18 20 18
28 28 20 30 34 31 17 43 32 38 28 13 41 10 17 40 43 41 55 44 38 55 48 51 55 55 46 48 45 31 23 26 29 29 30 28 26 19 28 26 24 24 20 21
31 34 18 30 23 27 10 46 39 21 10 12 33 22 19 38 55 53 55 47 38 65 66 67 61 61 56 54 48 45 34 26 35 33 31 29 25 24 26 32 24 18 18 25
30 30 18 20 28 36 25 24 8 3 10 17 35 27 20 52 53 64 61 64 56 73 67 74 81 63 55 55 56 50 42 32 35 33 31 25 22 22 31 27 21 20 19 13
22 23 29 30 36 35 26 30 11 15 3 11 20 9 14 52 69 78 76 71 69 76 64 75 68 67 64 53 64 52 44 39 31 34 33 29 22 16 18 23 26 18 22 20
14 30 26 38 30 35 30 28 36 33 25 2 13 2 22 42 51 67 75 78 77 82 65 79 81 94 64 54 54 56 45 42 43 37 36 33 30 28 19 25 24 19 20 16
20 21 31 29 27 32 35 23 27 21 29 20 5 5 6 38 55 53 63 74 68 48 76 73 61 79 74 71 47 54 45 39 47 42 40 38 30 32 28 27 31 19 30 23
30 17 30 28 27 32 27 27 28 34 29 25 6 8 5 3 29 39 54 58 60 55 44 43 68 77 73 55 58 51 43 40 42 47 33 35 32 26 29 24 24 30 28 23
25 17 14 29 25 32 31 32 30 23 30 30 16 10 22 26 30 74 56 65 70 67 54 43 51 60 76 74 71 50 41 41 45 48 44 41 35 30 18 25 16 15 26 29
16 20 20 27 24 29 36 37 37 34 31 29 17 5 26 44 46 29 46 51 76 61 55 49 39 47 62 58 46 34 51 50 43 48 51 43 44 41 32 23 24 19 18 15
16 30 31 14 19 33 34 36 37 32 26 24 33 33 36 36 29 43 56 55 58 54 60 54 31 17 45 39 12 47 31 42 53 48 49 45 40 31 29 25 22 27 20 14
15 30 33 17 16 45 41 25 35 31 39 33 17 21 23 30 22 39 50 58 57 56 50 56 47 53 35 48 50 38 54 59 61 55 31 16 27 25 29 26 26 27 29 22
10 17 24 27 19 39 33 46 38 44 40 35 21 36 27 46 47 27 28 27 44 44 46 42 52 51 50 49 56 56 49 48 42 45 46 46 20 29 31 38 36 30 28 32
15 6 15 19 20 31 28 24 34 26 11 28 2 24 36 35 50 41 28 15 18 23 33 38 46 58 61 66 54 44 40 37 34 28 26 25 25 26 23 18 21 26 36 35
15 5 4 7 8 3 26 18 34 26 38 52 36 35 37 41 38 29 10 9 23 32 28 40 44 42 30 25 29 33 39 37 31 23 21 22 18 25 33 26 26 27 32 36
24 7 3 11 4 7 14 29 14 30 21 34 29 24 36 43 48 24 12 13 16 25 24 27 34 35 43 39 38 38 31 26 22 17 16 13 12 17 21 26 21 27 29 32
25 15 9 1 6 4 18 40 57 46 11 34 12 14 5 28 10 12 30 29 20 20 24 25 23 22 22 28 31 23 29 33 32 31 21 11 11 15 19 15 13 13 30 23
21 13 19 9 2 4 17 33 39 26 7 22 25 36 66 15 24 34 30 35 28 26 26 23 23 21 21 24 26 27 28 27 28 24 21 20 13 12 12 19 16 15 14 19
1 11 18 11 6 13 7 14 1 3 15 21 27 24 37 35 34 32 30 35 31 30 31 30 30 27 22 19 18 20 20 23 27 35 41 33 25 18 19 16 16 14 19 19
9 12 5 13 10 15 28 29 17 15 18 19 16 12 20 27 29 28 33 32 31 31 32 31 32 30 23 24 20 19 20 21 23 28 33 33 22 22 19 25 22 17 15 8
12 10 11 21 20 21 16 19 19 19 15 11 12 19 23 31 27 26 31 34 33 32 31 27 28 28 25 21 19 19 20 18 16 15 17 19 20 22 21 20 22 21 24 26
11 2 1 19 23 17 11 17 13 13 14 16 15 12 18 33 30 34 34 30 28 30 26 24 22 25 22 18 17 16 17 18 13 14 9 10 14 17 21 23 28 29 26 30
9 1 3 11 20 27 25 15 6 7 10 11 11 8 15 20 27 26 27 31 34 33 27 28 22 24 25 21 18 17 15 17 14 13 11 5 1 7 14 27 32 27 23 32
Wind_Direction_500mb
204 213 219 218 231 243 219 135 135 116 136 126 172 193 251 247 197 178 183 168 174 169 163 163 163 164 162 161 162 152 156 170 174 161 157 158 161 145 160 177 179 146 140 171
183 227 233 224 236 227 259 104 104 105 141 151 185 215 230 229 234 234 186 172 184 161 164 167 163 160 157 156 177 174 176 181 172 162 171 155 162 161 148 157 198 175 190 166
234 214 223 246 244 242 241 136 165 152 137 110 172 242 230 224 256 224 232 254 175 165 164 157 166 170 162 165 164 173 186 189 171 152 155 147 163 161 181 184 192 170 195 156
236 252 210 228 237 251 248 135 132 140 155 165 186 200 203 212 213 218 236 252 164 174 180 174 177 182 159 164 179 188 195 189 183 160 166 156 162 165 182 166 186 193 183 186
226 240 238 226 227 245 169 138 175 151 181 350 190 238 195 187 214 216 225 232 191 188 186 171 180 181 181 169 172 192 198 188 185 183 180 172 151 181 203 176 189 191 198 196
261 207 244 238 234 241 204 120 117 95 70 284 231 205 161 187 202 204 207 216 209 190 186 183 181 181 176 173 170 179 198 190 184 181 172 167 175 194 157 165 192 201 208 199
230 255 254 224 232 232 228 228 128 41 175 226 210 194 226 198 200 191 193 199 198 209 208 184 193 186 176 172 171 174 186 194 185 181 181 187 173 176 177 173 175 196 190 196
213 220 218 219 237 227 206 229 222 220 278 123 192 276 230 182 188 186 192 199 205 211 208 184 191 182 177 180 171 172 182 187 187 182 177 176 175 173 166 172 169 181 199 214
255 219 205 219 216 244 208 226 253 266 283 324 185 343 113 162 169 183 189 203 206 211 188 191 174 177 184 190 173 185 187 187 181 184 188 189 187 174 191 189 181 185 165 215
291 289 254 199 205 250 258 226 235 249 255 252 132 182 109 168 171 187 197 197 207 203 174 178 169 179 174 177 179 189 193 194 179 188 199 194 197 191 190 188 185 197 182 202
264 281 288 181 197 214 230 251 264 257 253 262 132 293 288 331 327 197 186 192 195 197 196 162 190 178 173 170 181 183 189 184 178 194 202 189 193 200 195 194 198 196 204 202
302 264 270 254 207 216 241 226 244 250 255 268 299 88 149 74 320 276 174 183 185 196 202 195 168 173 163 171 175 176 180 189 187 194 202 194 184 192 205 182 208 211 220 224
312 251 255 250 289 215 218 241 228 253 255 269 290 140 176 165 205 240 173 169 175 186 197 199 156 169 179 162 166 199 200 186 196 203 204 207 191 186 189 209 192 217 245 235
298 273 270 342 318 306 198 236 243 236 251 243 255 134 175 198 187 180 145 162 163 173 190 191 202 150 183 179 197 207 193 230 226 208 204 200 195 196 193 196 206 221 232 229
238 260 283 340 298 277 292 232 239 242 246 257 150 156 106 50 301 155 142 152 165 173 177 190 186 188 177 161 210 202 193 189 204 219 206 218 176 195 205 195 205 220 225 232
261 285 308 270 249 269 262 273 214 238 235 254 245 92 83 59 20 349 116 129 160 175 185 178 175 169 174 168 192 209 197 196 219 231 237 244 200 203 226 220 218 217 213 226
296 17 350 300 10 342 286 352 8 276 253 278 55 94 92 93 99 339 330 162 131 132 161 162 170 174 171 177 183 195 193 199 213 222 211 211 206 213 220 220 230 237 232 229
252 86 48 339 8 242 351 2 357 4 33 38 69 88 105 126 139 157 196 202 130 134 146 163 169 165 169 186 196 200 204 209 212 237 236 239 233 245 252 250 244 244 233 228
242 226 166 254 172 240 298 14 4 347 7 32 50 98 113 127 118 112 154 210 159 162 159 142 166 169 181 183 198 196 199 210 218 194 173 186 208 226 237 239 247 246 224 217
263 137 227 197 61 335 336 323 327 322 29 360 22 103 97 155 134 124 142 140 147 157 168 186 196 188 186 199 198 200 198 194 185 186 187 198 229 230 244 234 227 221 215 224
318 276 213 169 77 106 248 258 309 267 44 347 31 73 146 144 110 139 140 134 129 139 145 156 160 171 178 182 193 194 186 192 205 210 203 175 191 192 204 212 217 197 189 235
261 343 292 123 38 180 289 273 340 95 31 21 12 50 84 106 125 136 136 123 122 122 122 121 128 137 141 147 163 167 170 172 179 179 170 169 169 182 190 182 197 210 211 229
121 209 275 347 117 116 87 93 74 70 55 36 354 65 73 98 119 128 126 120 122 121 117 115 115 110 111 117 120 141 156 166 176 184 184 167 153 190 182 180 163 155 152 108
176 145 179 188 135 115 104 97 81 65 62 28 10 50 119 118 127 131 134 133 134 131 126 124 120 120 122 124 132 133 133 133 132 148 168 179 155 137 138 137 147 192 179 168
53 241 232 122 138 148 140 94 67 64 47 37 34 37 89 124 132 142 147 148 137 132 130 136 130 122 116 110 113 123 123 113 105 111 134 177 184 195 181 183 199 192 201 191
214 192 231 47 121 103 118 116 74 48 37 27 24 38 74 116 141 158 158 153 151 150 141 135 134 144 135 133 133 128 132 141 129 120 124 137 200 275 232 220 221 226 223 216
Wind_Speed_850mb
37 22 30 37 40 20 32 28 18 30 24 13 10 6 23 26 29 48 47 47 44 46 43 40 41 38 37 37 40 28 28 34 33 45 40 43 26 32 23 23 16 11 16 13
20 32 35 34 36 30 42 48 34 25 36 7 17 20 30 29 21 25 47 51 45 51 51 45 48 44 46 36 34 35 39 35 30 28 30 38 38 34 23 18 14 17 7 14
35 28 31 35 35 33 41 21 37 25 31 15 13 16 28 32 19 29 28 22 54 62 53 51 44 44 41 35 34 37 33 32 27 27 26 37 32 27 25 22 14 18 9 13
32 33 34 35 34 33 24 30 28 50 28 12 28 7 18 29 30 32 40 35 28 55 49 58 45 40 47 41 29 29 22 30 27 28 18 33 33 27 27 23 21 18 20 18
28 28 20 30 34 31 17 43 32 38 28 13 41 10 17 40 43 41 55 44 38 55 48 51 55 55 46 48 45 31 23 26 29 29 30 28 26 19 28 26 24 24 20 21
31 34 18 30 23 27 10 46 39 21 10 12 33 22 19 38 55 53 55 47 38 65 66 67 61 61 56 54 48 45 34 26 35 33 31 29 25 24 26 32 24 18 18 25
30 30 18 20 28 36 25 24 8 3 10 17 35 27 20 52 53 64 61 64 56 73 67 74 81 63 55 55 56 50 42 32 35 33 31 25 22 22 31 27 21 20 19 13
22 23 29 30 36 35 26 30 11 15 3 11 20 9 14 52 69 78 76 71 69 76 64 75 68 67 64 53 64 52 44 39 31 34 33 29 22 16 18 23 26 18 22 20
14 30 26 38 30 35 30 28 36 33 25 2 13 2 22 42 51 67 75 78 77 82 65 79 81 94 64 54 54 56 45 42 43 37 36 33 30 28 19 25 24 19 20 16
20 21 31 29 27 32 35 23 27 21 29 20 5 5 6 38 55 53 63 74 68 48 76 73 61 79 74 71 47 54 45 39 47 42 40 38 30 32 28 27 31 19 30 23
30 17 30 28 27 32 27 27 28 34 29 25 6 8 5 3 29 39 54 58 60 55 44 43 68 77 73 55 58 51 43 40 42 47 33 35 32 26 29 24 24 30 28 23
25 17 14 29 25 32 31 32 30 23 30 30 16 10 22 26 30 74 56 65 70 67 54 43 51 60 76 74 71 50 41 41 45 48 44 41 35 30 18 25 16 15 26 29
16 20 20 27 24 29 36 37 37 34 31 29 17 5 26 44 46 29 46 51 76 61 55 49 39 47 62 58 46 34 51 50 43 48 51 43 44 41 32 23 24 19 18 15
16 30 31 14 19 33 34 36 37 32 26 24 33 33 36 36 29 43 56 55 58 54 60 54 31 17 45 39 12 47 31 42 53 48 49 45 40 31 29 25 22 27 20 14
15 30 33 17 16 45 41 25 35 31 39 33 17 21 23 30 22 39 50 58 57 56 50 56 47 53 35 48 50 38 54 59 61 55 31 16 27 25 29 26 26 27 29 22
10 17 24 27 19 39 33 46 38 44 40 35 21 36 27 46 47 27 28 27 44 44 46 42 52 51 50 49 56 56 49 48 42 45 46 46 20 29 31 38 36 30 28 32
15 6 15 19 20 31 28 24 34 26 11 28 2 24 36 35 50 41 28 15 18 23 33 38 46 58 61 66 54 44 40 37 34 28 26 25 25 26 23 18 21 26 36 35
15 5 4 7 8 3 26 18 34 26 38 52 36 35 37 41 38 29 10 9 23 32 28 40 44 42 30 25 29 33 39 37 31 23 21 22 18 25 33 26 26 27 32 36
24 7 3 11 4 7 14 29 14 30 21 34 29 24 36 43 48 24 12 13 16 25 24 27 34 35 43 39 38 38 31 26 22 17 16 13 12 17 21 26 21 27 29 32
25 15 9 1 6 4 18 40 57 46 11 34 12 14 5 28 10 12 30 29 20 20 24 25 23 22 22 28 31 23 29 33 32 31 21 11 11 15 19 15 13 13 30 23
21 13 19 9 2 4 17 33 39 26 7 22 25 36 66 15 24 34 30 35 28 26 26 23 23 21 21 24 26 27 28 27 28 24 21 20 13 12 12 19 16 15 14 19
1 11 18 11 6 13 7 14 1 3 15 21 27 24 37 35 34 32 30 35 31 30 31 30 30 27 22 19 18 20 20 23 27 35 41 33 25 18 19 16 16 14 19 19
9 12 5 13 10 15 28 29 17 15 18 19 16 12 20 27 29 28 33 32 31 31 32 31 32 30 23 24 20 19 20 21 23 28 33 33 22 22 19 25 22 17 15 8
12 10 11 21 20 21 16 19 19 19 15 11 12 19 23 31 27 26 31 34 33 32 31 27 28 28 25 21 19 19 20 18 16 15 17 19 20 22 21 20 22 21 24 26
11 2 1 19 23 17 11 17 13 13 14 16 15 12 18 33 30 34 34 30 28 30 26 24 22 25 22 18 17 16 17 18 13 14 9 10 14 17 21 23 28 29 26 30
9 1 3 11 20 27 25 15 6 7 10 11 11 8 15 20 27 26 27 31 34 33 27 28 22 24 25 21 18 17 15 17 14 13 11 5 1 7 14 27 32 27 23 32
Wind_Direction_850mb
204 213 219 218 231 243 219 135 135 116 136 126 172 193 251 247 197 178 183 168 174 169 163 163 163 164 162 161 162 152 156 170 174 161 157 158 161 145 160 177 179 146 140 171
183 227 233 224 236 227 259 104 104 105 141 151 185 215 230 229 234 234 186 172 184 161 164 167 163 160 157 156 177 174 176 181 172 162 171 155 162 161 148 157 198 175 190 166
234 214 223 246 244 242 241 136 165 152 137 110 172 242 230 224 256 224 232 254 175 165 164 157 166 170 162 165 164 173 186 189 171 152 155 147 163 161 181 184 192 170 195 156
236 252 210 228 237 251 248 135 132 140 155 165 186 200 203 212 213 218 236 252 164 174 180 174 177 182 159 164 179 188 195 189 183 160 166 156 162 165 182 166 186 193 183 186
226 240 238 226 227 245 169 138 175 151 181 350 190 238 195 187 214 216 225 232 191 188 186 171 180 181 181 169 172 192 198 188 185 183 180 172 151 181 203 176 189 191 198 196
261 207 244 238 234 241 204 120 117 95 70 284 231 205 161 187 202 204 207 216 209 190 186 183 181 181 176 173 170 179 198 190 184 181 172 167 175 194 157 165 192 201 208 199
230 255 254 224 232 232 228 228 128 41 175 226 210 194 226 198 200 191 193 199 198 209 208 184 193 186 176 172 171 174 186 194 185 181 181 187 173 176 177 173 175 196 190 196
213 220 218 219 237 227 206 229 222 220 278 123 192 276 230 182 188 186 192 199 205 211 208 184 191 182 177 180 171 172 182 187 187 182 177 176 175 173 166 172 169 181 199 214
255 219 205 219 216 244 208 226 253 266 283 324 185 343 113 162 169 183 189 203 206 211 188 191 174 177 184 190 173 185 187 187 181 184 188 189 187 174 191 189 181 185 165 215
291 289 254 199 205 250 258 226 235 249 255 252 132 182 109 168 171 187 197 197 207 203 174 178 169 179 174 177 179 189 193 194 179 188 199 194 197 191 190 188 185 197 182 202
264 281 288 181 197 214 230 251 264 257 253 262 132 293 288 331 327 197 186 192 195 197 196 162 190 178 173 170 181 183 189 184 178 194 202 189 193 200 195 194 198 196 204 202
302 264 270 254 207 216 241 226 244 250 255 268 299 88 149 74 320 276 174 183 185 196 202 195 168 173 163 171 175 176 180 189 187 194 202 194 184 192 205 182 208 211 220 224
312 251 255 250 289 215 218 241 228 253 255 269 290 140 176 165 205 240 173 169 175 186 197 199 156 169 179 162 166 199 200 186 196 203 204 207 191 186 189 209 192 217 245 235
298 273 270 342 318 306 198 236 243 236 251 243 255 134 175 198 187 180 145 162 163 173 190 191 202 150 183 179 197 207 193 230 226 208 204 200 195 196 193 196 206 221 232 229
238 260 283 340 298 277 292 232 239 242 246 257 150 156 106 50 301 155 142 152 165 173 177 190 186 188 177 161 210 202 193 189 204 219 206 218 176 195 205 195 205 220 225 232
261 285 308 270 249 269 262 273 214 238 235 254 245 92 83 59 20 349 116 129 160 175 185 178 175 169 174 168 192 209 197 196 219 231 237 244 200 203 226 220 218 217 213 226
296 17 350 300 10 342 286 352 8 276 253 278 55 94 92 93 99 339 330 162 131 132 161 162 170 174 171 177 183 195 193 199 213 222 211 211 206 213 220 220 230 237 232 229
252 86 48 339 8 242 351 2 357 4 33 38 69 88 105 126 139 157 196 202 130 134 146 163 169 165 169 186 196 200 204 209 212 237 236 239 233 245 252 250 244 244 233 228
242 226 166 254 172 240 298 14 4 347 7 32 50 98 113 127 118 112 154 210 159 162 159 142 166 169 181 183 198 196 199 210 218 194 173 186 208 226 237 239 247 246 224 217
263 137 227 197 61 335 336 323 327 322 29 360 22 103 97 155 134 124 142 140 147 157 168 186 196 188 186 199 198 200 198 194 185 186 187 198 229 230 244 234 227 221 215 224
318 276 213 169 77 106 248 258 309 267 44 347 31 73 146 144 110 139 140 134 129 139 145 156 160 171 178 182 193 194 186 192 205 210 203 175 191 192 204 212 217 197 189 235
261 343 292 123 38 180 289 273 340 95 31 21 12 50 84 106 125 136 136 123 122 122 122 121 128 137 141 147 163 167 170 172 179 179 170 169 169 182 190 182 197 210 211 229
121 209 275 347 117 116 87 93 74 70 55 36 354 65 73 98 119 128 126 120 122 121 117 115 115 110 111 117 120 141 156 166 176 184 184 167 153 190 182 180 163 155 152 108
176 145 179 188 135 115 104 97 81 65 62 28 10 50 119 118 127 131 134 133 134 131 126 124 120 120 122 124 132 133 133 133 132 148 168 179 155 137 138 137 147 192 179 168
53 241 232 122 138 148 140 94 67 64 47 37 34 37 89 124 132 142 147 148 137 132 130 136 130 122 116 110 113 123 123 113 105 111 134 177 184 195 181 183 199 192 201 191
214 192 231 47 121 103 118 116 74 48 37 27 24 38 74 116 141 158 158 153 151 150 141 135 134 144 135 133 133 128 132 141 129 120 124 137 200 275 232 220 221 226 223 216